Year,Month,Day,Hour,Minute,Value (Times are PST for temperature in C)
2011,09,30,00,00,12.00
2011,09,30,00,01,12.00
2011,09,30,00,02,12.00
2011,09,30,00,03,12.00
2011,09,30,00,04,11.90
2011,09,30,00,05,11.90
2011,09,30,00,06,11.90
2011,09,30,00,07,11.90
2011,09,30,00,08,11.90
2011,09,30,00,09,11.90
2011,09,30,00,10,11.90
2011,09,30,00,11,11.90
2011,09,30,00,12,11.90
2011,09,30,00,13,11.80
2011,09,30,00,14,11.80
2011,09,30,00,15,11.80
2011,09,30,00,16,11.80
2011,09,30,00,17,11.80
2011,09,30,00,18,11.80
2011,09,30,00,19,11.80
2011,09,30,00,20,11.80
2011,09,30,00,21,11.80
2011,09,30,00,22,11.80
2011,09,30,00,23,11.80
2011,09,30,00,24,11.80
2011,09,30,00,25,11.80
2011,09,30,00,26,11.70
2011,09,30,00,27,11.70
2011,09,30,00,28,11.70
2011,09,30,00,29,11.70
2011,09,30,00,30,11.70
2011,09,30,00,31,11.70
2011,09,30,00,32,11.70
2011,09,30,00,33,11.70
2011,09,30,00,34,11.70
2011,09,30,00,35,11.70
2011,09,30,00,36,11.70
2011,09,30,00,37,11.70
2011,09,30,00,38,11.70
2011,09,30,00,39,11.70
2011,09,30,00,40,11.70
2011,09,30,00,41,11.70
2011,09,30,00,42,11.70
2011,09,30,00,43,11.70
2011,09,30,00,44,11.70
2011,09,30,00,45,11.70
2011,09,30,00,46,11.70
2011,09,30,00,47,11.70
2011,09,30,00,48,11.70
2011,09,30,00,49,11.70
2011,09,30,00,50,11.80
2011,09,30,00,51,11.80
2011,09,30,00,52,11.80
2011,09,30,00,53,11.80
2011,09,30,00,54,11.80
2011,09,30,00,55,11.80
2011,09,30,00,56,11.80
2011,09,30,00,57,11.80
2011,09,30,00,58,11.80
2011,09,30,00,59,11.80
2011,09,30,01,00,11.80
2011,09,30,01,01,11.80
2011,09,30,01,02,11.80
2011,09,30,01,03,11.70
2011,09,30,01,04,11.70
2011,09,30,01,05,11.80
2011,09,30,01,06,11.80
2011,09,30,01,07,11.80
2011,09,30,01,08,11.80
2011,09,30,01,09,11.80
2011,09,30,01,10,11.80
2011,09,30,01,11,11.80
2011,09,30,01,12,11.80
2011,09,30,01,13,11.90
2011,09,30,01,14,11.90
2011,09,30,01,15,11.90
2011,09,30,01,16,11.90
2011,09,30,01,17,11.90
2011,09,30,01,18,11.90
2011,09,30,01,19,11.90
2011,09,30,01,20,11.80
2011,09,30,01,21,11.80
2011,09,30,01,22,11.80
2011,09,30,01,23,11.80
2011,09,30,01,24,11.80
2011,09,30,01,25,11.80
2011,09,30,01,26,11.70
2011,09,30,01,27,11.70
2011,09,30,01,28,11.80
2011,09,30,01,29,11.80
2011,09,30,01,30,11.80
2011,09,30,01,31,11.80
2011,09,30,01,32,11.80
2011,09,30,01,33,11.80
2011,09,30,01,34,11.80
2011,09,30,01,35,11.80
2011,09,30,01,36,11.80
2011,09,30,01,37,11.80
2011,09,30,01,38,11.80
2011,09,30,01,39,11.80
2011,09,30,01,40,11.80
2011,09,30,01,41,11.80
2011,09,30,01,42,11.80
2011,09,30,01,43,11.90
2011,09,30,01,44,11.90
2011,09,30,01,45,11.90
2011,09,30,01,46,11.90
2011,09,30,01,47,11.90
2011,09,30,01,48,11.90
2011,09,30,01,49,11.90
2011,09,30,01,50,11.90
2011,09,30,01,51,11.90
2011,09,30,01,52,12.00
2011,09,30,01,53,12.00
2011,09,30,01,54,12.10
2011,09,30,01,55,12.20
2011,09,30,01,56,12.40
2011,09,30,01,57,12.50
2011,09,30,01,58,12.60
2011,09,30,01,59,12.70
2011,09,30,02,00,12.80
2011,09,30,02,01,12.80
2011,09,30,02,02,12.80
2011,09,30,02,03,12.90
2011,09,30,02,04,12.90
2011,09,30,02,05,12.90
2011,09,30,02,06,12.90
2011,09,30,02,07,12.90
2011,09,30,02,08,12.90
2011,09,30,02,09,12.90
2011,09,30,02,10,12.90
2011,09,30,02,11,12.80
2011,09,30,02,12,12.80
2011,09,30,02,13,12.80
2011,09,30,02,14,12.80
2011,09,30,02,15,12.90
2011,09,30,02,16,12.90
2011,09,30,02,17,13.00
2011,09,30,02,18,13.20
2011,09,30,02,19,13.30
2011,09,30,02,20,13.30
2011,09,30,02,21,13.40
2011,09,30,02,22,13.50
2011,09,30,02,23,13.60
2011,09,30,02,24,13.60
2011,09,30,02,25,13.70
2011,09,30,02,26,13.70
2011,09,30,02,27,13.70
2011,09,30,02,28,13.70
2011,09,30,02,29,13.70
2011,09,30,02,30,13.70
2011,09,30,02,31,13.70
2011,09,30,02,32,13.70
2011,09,30,02,33,13.80
2011,09,30,02,34,13.70
2011,09,30,02,35,13.70
2011,09,30,02,36,13.70
2011,09,30,02,37,13.70
2011,09,30,02,38,13.70
2011,09,30,02,39,13.70
2011,09,30,02,40,13.70
2011,09,30,02,41,13.80
2011,09,30,02,42,13.80
2011,09,30,02,43,13.80
2011,09,30,02,44,13.80
2011,09,30,02,45,13.80
2011,09,30,02,46,13.80
2011,09,30,02,47,13.80
2011,09,30,02,48,13.80
2011,09,30,02,49,13.90
2011,09,30,02,50,13.90
2011,09,30,02,51,13.90
2011,09,30,02,52,13.90
2011,09,30,02,53,13.90
2011,09,30,02,54,13.90
2011,09,30,02,55,13.90
2011,09,30,02,56,13.90
2011,09,30,02,57,13.90
2011,09,30,02,58,13.90
2011,09,30,02,59,13.90
2011,09,30,03,00,13.90
2011,09,30,03,01,14.00
2011,09,30,03,02,14.00
2011,09,30,03,03,14.00
2011,09,30,03,06,14.00
2011,09,30,03,07,14.00
2011,09,30,03,08,14.00
2011,09,30,03,09,13.90
2011,09,30,03,10,13.90
2011,09,30,03,11,13.90
2011,09,30,03,12,13.90
2011,09,30,03,13,14.00
2011,09,30,03,14,14.00
2011,09,30,03,15,14.00
2011,09,30,03,16,14.10
2011,09,30,03,17,14.10
2011,09,30,03,18,14.10
2011,09,30,03,19,14.20
2011,09,30,03,20,14.20
2011,09,30,03,21,14.20
2011,09,30,03,22,14.20
2011,09,30,03,23,14.20
2011,09,30,03,24,14.20
2011,09,30,03,25,14.10
2011,09,30,03,26,14.10
2011,09,30,03,27,14.10
2011,09,30,03,28,14.00
2011,09,30,03,29,14.00
2011,09,30,03,30,13.90
2011,09,30,03,31,13.80
2011,09,30,03,32,13.70
2011,09,30,03,33,13.50
2011,09,30,03,34,13.40
2011,09,30,03,35,13.30
2011,09,30,03,36,13.30
2011,09,30,03,37,13.20
2011,09,30,03,38,13.20
2011,09,30,03,39,13.10
2011,09,30,03,40,13.10
2011,09,30,03,41,13.00
2011,09,30,03,42,13.00
2011,09,30,03,43,12.90
2011,09,30,03,44,12.90
2011,09,30,03,45,12.90
2011,09,30,03,46,12.80
2011,09,30,03,47,12.80
2011,09,30,03,48,12.90
2011,09,30,03,49,12.90
2011,09,30,03,50,13.00
2011,09,30,03,51,13.20
2011,09,30,03,52,13.30
2011,09,30,03,53,13.50
2011,09,30,03,54,13.60
2011,09,30,03,55,13.80
2011,09,30,03,56,14.00
2011,09,30,03,57,14.10
2011,09,30,03,58,14.20
2011,09,30,03,59,14.20
2011,09,30,04,00,14.20
2011,09,30,04,01,14.20
2011,09,30,04,02,14.20
2011,09,30,04,03,14.20
2011,09,30,04,04,14.20
2011,09,30,04,05,14.20
2011,09,30,04,06,14.20
2011,09,30,04,07,14.10
2011,09,30,04,08,14.10
2011,09,30,04,09,14.10
2011,09,30,04,10,14.10
2011,09,30,04,11,14.10
2011,09,30,04,12,14.10
2011,09,30,04,13,14.00
2011,09,30,04,14,14.00
2011,09,30,04,15,14.00
2011,09,30,04,16,14.00
2011,09,30,04,17,13.90
2011,09,30,04,18,13.90
2011,09,30,04,19,13.90
2011,09,30,04,20,13.90
2011,09,30,04,21,13.90
2011,09,30,04,22,13.90
2011,09,30,04,23,13.90
2011,09,30,04,24,13.90
2011,09,30,04,25,13.90
2011,09,30,04,26,13.90
2011,09,30,04,27,13.90
2011,09,30,04,28,13.90
2011,09,30,04,29,13.90
2011,09,30,04,30,13.90
2011,09,30,04,31,13.80
2011,09,30,04,32,13.80
2011,09,30,04,33,13.80
2011,09,30,04,34,13.80
2011,09,30,04,35,13.80
2011,09,30,04,36,13.80
2011,09,30,04,37,13.80
2011,09,30,04,38,13.80
2011,09,30,04,39,13.80
2011,09,30,04,40,13.80
2011,09,30,04,41,13.80
2011,09,30,04,42,13.90
2011,09,30,04,43,13.90
2011,09,30,04,44,13.90
2011,09,30,04,45,13.90
2011,09,30,04,46,13.90
2011,09,30,04,47,13.90
2011,09,30,04,48,13.90
2011,09,30,04,49,13.90
2011,09,30,04,50,13.90
2011,09,30,04,51,13.90
2011,09,30,04,52,13.90
2011,09,30,04,53,13.90
2011,09,30,04,54,13.90
2011,09,30,04,55,13.90
2011,09,30,04,56,13.90
2011,09,30,04,57,13.90
2011,09,30,04,58,13.90
2011,09,30,04,59,13.90
2011,09,30,05,00,13.90
2011,09,30,05,01,13.90
2011,09,30,05,02,13.90
2011,09,30,05,03,13.90
2011,09,30,05,04,13.90
2011,09,30,05,05,13.90
2011,09,30,05,06,13.90
2011,09,30,05,07,13.90
2011,09,30,05,08,13.90
2011,09,30,05,09,13.90
2011,09,30,05,10,13.80
2011,09,30,05,11,13.80
2011,09,30,05,12,13.80
2011,09,30,05,13,13.80
2011,09,30,05,14,13.80
2011,09,30,05,15,13.80
2011,09,30,05,16,13.80
2011,09,30,05,17,13.80
2011,09,30,05,18,13.80
2011,09,30,05,19,13.80
2011,09,30,05,20,13.90
2011,09,30,05,21,13.90
2011,09,30,05,22,13.90
2011,09,30,05,23,13.80
2011,09,30,05,24,13.80
2011,09,30,05,25,13.80
2011,09,30,05,26,13.80
2011,09,30,05,27,13.80
2011,09,30,05,28,13.90
2011,09,30,05,29,13.90
2011,09,30,05,30,13.90
2011,09,30,05,31,13.90
2011,09,30,05,32,13.90
2011,09,30,05,33,13.90
2011,09,30,05,34,13.90
2011,09,30,05,35,13.90
2011,09,30,05,36,13.80
2011,09,30,05,37,13.80
2011,09,30,05,38,13.80
2011,09,30,05,39,13.70
2011,09,30,05,40,13.70
2011,09,30,05,41,13.60
2011,09,30,05,42,13.50
2011,09,30,05,43,13.40
2011,09,30,05,44,13.30
2011,09,30,05,45,13.30
2011,09,30,05,46,13.20
2011,09,30,05,47,13.20
2011,09,30,05,48,13.20
2011,09,30,05,49,13.10
2011,09,30,05,50,13.10
2011,09,30,05,51,13.00
2011,09,30,05,52,12.90
2011,09,30,05,53,12.90
2011,09,30,05,54,12.90
2011,09,30,05,55,12.90
2011,09,30,05,56,12.90
2011,09,30,05,57,12.90
2011,09,30,05,58,12.90
2011,09,30,05,59,12.90
2011,09,30,06,00,12.80
2011,09,30,06,01,12.80
2011,09,30,06,02,12.80
2011,09,30,06,03,12.80
2011,09,30,06,04,12.70
2011,09,30,06,05,12.70
2011,09,30,06,06,12.70
2011,09,30,06,07,12.60
2011,09,30,06,08,12.60
2011,09,30,06,09,12.60
2011,09,30,06,10,12.60
2011,09,30,06,11,12.60
2011,09,30,06,12,12.50
2011,09,30,06,13,12.60
2011,09,30,06,14,12.60
2011,09,30,06,15,12.50
2011,09,30,06,16,12.50
2011,09,30,06,17,12.60
2011,09,30,06,18,12.50
2011,09,30,06,19,12.60
2011,09,30,06,20,12.60
2011,09,30,06,21,12.60
2011,09,30,06,22,12.60
2011,09,30,06,23,12.60
2011,09,30,06,24,12.60
2011,09,30,06,25,12.60
2011,09,30,06,26,12.60
2011,09,30,06,27,12.60
2011,09,30,06,29,12.60
2011,09,30,06,30,12.60
2011,09,30,06,31,12.60
2011,09,30,06,32,12.60
2011,09,30,06,33,12.60
2011,09,30,06,34,12.60
2011,09,30,06,35,12.50
2011,09,30,06,36,12.50
2011,09,30,06,37,12.50
2011,09,30,06,38,12.60
2011,09,30,06,39,12.50
2011,09,30,06,40,12.50
2011,09,30,06,41,12.60
2011,09,30,06,42,12.50
2011,09,30,06,43,12.50
2011,09,30,06,44,12.50
2011,09,30,06,45,12.50
2011,09,30,06,46,12.50
2011,09,30,06,47,12.50
2011,09,30,06,48,12.50
2011,09,30,06,49,12.50
2011,09,30,06,50,12.50
2011,09,30,06,51,12.50
2011,09,30,06,52,12.60
2011,09,30,06,53,12.60
2011,09,30,06,54,12.60
2011,09,30,06,55,12.60
2011,09,30,06,56,12.60
2011,09,30,06,57,12.70
2011,09,30,06,58,12.70
2011,09,30,06,59,12.70
2011,09,30,07,00,12.70
2011,09,30,07,01,12.70
2011,09,30,07,02,12.80
2011,09,30,07,03,12.80
2011,09,30,07,04,12.80
2011,09,30,07,05,12.90
2011,09,30,07,06,12.90
2011,09,30,07,07,12.90
2011,09,30,07,08,12.90
2011,09,30,07,09,12.90
2011,09,30,07,10,12.90
2011,09,30,07,11,12.90
2011,09,30,07,12,12.90
2011,09,30,07,13,12.90
2011,09,30,07,14,12.90
2011,09,30,07,15,12.80
2011,09,30,07,16,12.80
2011,09,30,07,17,12.80
2011,09,30,07,18,12.80
2011,09,30,07,19,12.80
2011,09,30,07,20,12.80
2011,09,30,07,21,12.70
2011,09,30,07,22,12.70
2011,09,30,07,23,12.60
2011,09,30,07,24,12.60
2011,09,30,07,25,12.60
2011,09,30,07,26,12.50
2011,09,30,07,27,12.50
2011,09,30,07,28,12.40
2011,09,30,07,29,12.40
2011,09,30,07,30,12.30
2011,09,30,07,31,12.30
2011,09,30,07,32,12.30
2011,09,30,07,33,12.20
2011,09,30,07,34,12.20
2011,09,30,07,35,12.20
2011,09,30,07,36,12.20
2011,09,30,07,37,12.10
2011,09,30,07,38,12.10
2011,09,30,07,39,12.10
2011,09,30,07,40,12.10
2011,09,30,07,41,12.10
2011,09,30,07,42,12.00
2011,09,30,07,43,12.00
2011,09,30,07,44,11.90
2011,09,30,07,45,11.90
2011,09,30,07,46,11.90
2011,09,30,07,47,11.90
2011,09,30,07,48,11.90
2011,09,30,07,49,11.90
2011,09,30,07,50,11.90
2011,09,30,07,51,11.90
2011,09,30,07,52,11.90
2011,09,30,07,53,11.90
2011,09,30,07,54,11.90
2011,09,30,07,55,11.90
2011,09,30,07,56,11.90
2011,09,30,07,57,11.90
2011,09,30,07,58,11.90
2011,09,30,07,59,11.90
2011,09,30,08,00,11.90
2011,09,30,08,01,11.90
2011,09,30,08,02,11.90
2011,09,30,08,03,11.90
2011,09,30,08,04,11.90
2011,09,30,08,05,11.90
2011,09,30,08,06,11.90
2011,09,30,08,07,11.90
2011,09,30,08,08,11.90
2011,09,30,08,09,11.90
2011,09,30,08,10,11.90
2011,09,30,08,11,11.90
2011,09,30,08,12,11.80
2011,09,30,08,13,11.80
2011,09,30,08,14,11.80
2011,09,30,08,15,11.80
2011,09,30,08,16,11.80
2011,09,30,08,17,11.80
2011,09,30,08,18,11.80
2011,09,30,08,19,11.80
2011,09,30,08,20,11.70
2011,09,30,08,21,11.70
2011,09,30,08,22,11.70
2011,09,30,08,23,11.70
2011,09,30,08,24,11.70
2011,09,30,08,25,11.70
2011,09,30,08,26,11.70
2011,09,30,08,27,11.70
2011,09,30,08,28,11.70
2011,09,30,08,29,11.70
2011,09,30,08,30,11.70
2011,09,30,08,31,11.70
2011,09,30,08,32,11.70
2011,09,30,08,33,11.70
2011,09,30,08,34,11.70
2011,09,30,08,35,11.70
2011,09,30,08,36,11.70
2011,09,30,08,37,11.70
2011,09,30,08,38,11.70
2011,09,30,08,39,11.70
2011,09,30,08,40,11.70
2011,09,30,08,41,11.70
2011,09,30,08,42,11.70
2011,09,30,08,43,11.80
2011,09,30,08,44,11.80
2011,09,30,08,45,11.80
2011,09,30,08,46,11.80
2011,09,30,08,47,11.80
2011,09,30,08,48,11.80
2011,09,30,08,49,11.90
2011,09,30,08,50,11.90
2011,09,30,08,51,11.90
2011,09,30,08,52,11.90
2011,09,30,08,53,11.90
2011,09,30,08,54,11.90
2011,09,30,08,55,11.90
2011,09,30,08,56,11.90
2011,09,30,08,57,11.90
2011,09,30,08,58,11.90
2011,09,30,08,59,11.90
2011,09,30,09,00,11.90
2011,09,30,09,01,11.90
2011,09,30,09,02,11.90
2011,09,30,09,03,11.80
2011,09,30,09,04,11.80
2011,09,30,09,05,11.70
2011,09,30,09,06,11.70
2011,09,30,09,07,11.70
2011,09,30,09,08,11.60
2011,09,30,09,09,11.60
2011,09,30,09,10,11.60
2011,09,30,09,11,11.60
2011,09,30,09,12,11.50
2011,09,30,09,13,11.50
2011,09,30,09,14,11.50
2011,09,30,09,15,11.50
2011,09,30,09,16,11.40
2011,09,30,09,17,11.40
2011,09,30,09,18,11.40
2011,09,30,09,19,11.40
2011,09,30,09,20,11.40
2011,09,30,09,21,11.40
2011,09,30,09,22,11.40
2011,09,30,09,23,11.40
2011,09,30,09,24,11.40
2011,09,30,09,25,11.40
2011,09,30,09,26,11.40
2011,09,30,09,27,11.40
2011,09,30,09,28,11.30
2011,09,30,09,29,11.30
2011,09,30,09,30,11.30
2011,09,30,09,31,11.30
2011,09,30,09,32,11.30
2011,09,30,09,33,11.30
2011,09,30,09,34,11.30
2011,09,30,09,35,11.30
2011,09,30,09,36,11.30
2011,09,30,09,37,11.30
2011,09,30,09,38,11.40
2011,09,30,09,39,11.40
2011,09,30,09,40,11.40
2011,09,30,09,41,11.40
2011,09,30,09,42,11.40
2011,09,30,09,43,11.40
2011,09,30,09,44,11.40
2011,09,30,09,47,11.50
2011,09,30,09,48,11.50
2011,09,30,09,49,11.60
2011,09,30,09,50,11.60
2011,09,30,09,51,11.60
2011,09,30,09,52,11.60
2011,09,30,09,53,11.60
2011,09,30,09,54,11.60
2011,09,30,09,55,11.70
2011,09,30,09,56,11.70
2011,09,30,09,57,11.70
2011,09,30,09,58,11.70
2011,09,30,09,59,11.70
2011,09,30,10,00,11.70
2011,09,30,10,01,11.70
2011,09,30,10,02,11.70
2011,09,30,10,03,11.70
2011,09,30,10,04,11.70
2011,09,30,10,05,11.70
2011,09,30,10,06,11.70
2011,09,30,10,07,11.70
2011,09,30,10,08,11.70
2011,09,30,10,09,11.70
2011,09,30,10,10,11.70
2011,09,30,10,11,11.70
2011,09,30,10,12,11.60
2011,09,30,10,13,11.60
2011,09,30,10,14,11.60
2011,09,30,10,17,11.50
2011,09,30,10,18,11.50
2011,09,30,10,19,11.40
2011,09,30,10,20,11.40
2011,09,30,10,21,11.40
2011,09,30,10,22,11.40
2011,09,30,10,23,11.40
2011,09,30,10,24,11.40
2011,09,30,10,25,11.40
2011,09,30,10,26,11.40
2011,09,30,10,27,11.40
2011,09,30,10,28,11.40
2011,09,30,10,29,11.40
2011,09,30,10,30,11.40
2011,09,30,10,31,11.40
2011,09,30,10,32,11.40
2011,09,30,10,33,11.40
2011,09,30,10,34,11.40
2011,09,30,10,35,11.40
2011,09,30,10,36,11.50
2011,09,30,10,37,11.50
2011,09,30,10,38,11.60
2011,09,30,10,39,11.60
2011,09,30,10,40,11.60
2011,09,30,10,41,11.60
2011,09,30,10,42,11.60
2011,09,30,10,43,11.70
2011,09,30,10,44,11.60
2011,09,30,10,45,11.60
2011,09,30,10,46,11.60
2011,09,30,10,47,11.60
2011,09,30,10,48,11.60
2011,09,30,10,49,11.60
2011,09,30,10,50,11.50
2011,09,30,10,51,11.50
2011,09,30,10,52,11.50
2011,09,30,10,53,11.50
2011,09,30,10,54,11.50
2011,09,30,10,55,11.50
2011,09,30,10,56,11.50
2011,09,30,10,57,11.50
2011,09,30,10,58,11.50
2011,09,30,10,59,11.60
2011,09,30,11,00,11.60
2011,09,30,11,01,11.60
2011,09,30,11,03,11.60
2011,09,30,11,04,11.60
2011,09,30,11,05,11.70
2011,09,30,11,06,11.70
2011,09,30,11,07,11.70
2011,09,30,11,10,11.80
2011,09,30,11,11,11.80
2011,09,30,11,12,11.80
2011,09,30,11,13,11.80
2011,09,30,11,14,11.80
2011,09,30,11,15,11.80
2011,09,30,11,16,11.80
2011,09,30,11,17,11.80
2011,09,30,11,18,11.80
2011,09,30,11,19,11.80
2011,09,30,11,20,11.80
2011,09,30,11,21,11.90
2011,09,30,11,22,11.90
2011,09,30,11,23,11.90
2011,09,30,11,24,11.90
2011,09,30,11,25,11.90
2011,09,30,11,26,11.90
2011,09,30,11,27,11.90
2011,09,30,11,28,12.00
2011,09,30,11,29,12.00
2011,09,30,11,30,12.00
2011,09,30,11,31,12.10
2011,09,30,11,32,12.10
2011,09,30,11,33,12.10
2011,09,30,11,34,12.10
2011,09,30,11,35,12.10
2011,09,30,11,36,12.10
2011,09,30,11,37,12.10
2011,09,30,11,38,12.20
2011,09,30,11,40,12.20
2011,09,30,11,41,12.20
2011,09,30,11,42,12.20
2011,09,30,11,43,12.20
2011,09,30,11,44,12.20
2011,09,30,11,45,12.20
2011,09,30,11,46,12.20
2011,09,30,11,47,12.20
2011,09,30,11,48,12.20
2011,09,30,11,49,12.20
2011,09,30,11,50,12.20
2011,09,30,11,51,12.20
2011,09,30,11,52,12.20
2011,09,30,11,53,12.20
2011,09,30,11,54,12.20
2011,09,30,11,55,12.20
2011,09,30,11,56,12.20
2011,09,30,11,57,12.20
2011,09,30,11,58,12.20
2011,09,30,11,59,12.10
2011,09,30,12,00,12.10
2011,09,30,12,01,12.10
2011,09,30,12,02,12.10
2011,09,30,12,03,12.10
2011,09,30,12,04,12.00
2011,09,30,12,05,12.00
2011,09,30,12,06,12.00
2011,09,30,12,07,11.90
2011,09,30,12,08,11.80
2011,09,30,12,09,11.80
2011,09,30,12,10,11.80
2011,09,30,12,11,11.80
2011,09,30,12,12,11.80
2011,09,30,12,13,11.70
2011,09,30,12,14,11.70
2011,09,30,12,15,11.70
2011,09,30,12,16,11.80
2011,09,30,12,17,11.80
2011,09,30,12,18,11.80
2011,09,30,12,19,11.80
2011,09,30,12,20,11.80
2011,09,30,12,21,11.80
2011,09,30,12,22,11.80
2011,09,30,12,23,11.80
2011,09,30,12,24,11.80
2011,09,30,12,25,11.80
2011,09,30,12,26,11.80
2011,09,30,12,27,11.70
2011,09,30,12,28,11.70
2011,09,30,12,29,11.70
2011,09,30,12,30,11.70
2011,09,30,12,31,11.70
2011,09,30,12,32,11.60
2011,09,30,12,33,11.60
2011,09,30,12,34,11.60
2011,09,30,12,35,11.60
2011,09,30,12,36,11.50
2011,09,30,12,37,11.50
2011,09,30,12,38,11.50
2011,09,30,12,39,11.50
2011,09,30,12,40,11.50
2011,09,30,12,41,11.60
2011,09,30,12,42,11.60
2011,09,30,12,43,11.50
2011,09,30,12,44,11.50
2011,09,30,12,45,11.60
2011,09,30,12,46,11.60
2011,09,30,12,47,11.60
2011,09,30,12,48,11.60
2011,09,30,12,49,11.60
2011,09,30,12,50,11.60
2011,09,30,12,51,11.70
2011,09,30,12,52,11.70
2011,09,30,12,53,11.70
2011,09,30,12,54,11.70
2011,09,30,12,55,11.70
2011,09,30,12,56,11.70
2011,09,30,12,57,11.70
2011,09,30,12,58,11.80
2011,09,30,12,59,11.80
2011,09,30,13,00,11.80
2011,09,30,13,01,11.80
2011,09,30,13,02,11.80
2011,09,30,13,03,11.80
2011,09,30,13,04,11.80
2011,09,30,13,05,11.80
2011,09,30,13,06,11.80
2011,09,30,13,07,11.80
2011,09,30,13,08,11.90
2011,09,30,13,09,11.90
2011,09,30,13,10,11.90
2011,09,30,13,11,12.00
2011,09,30,13,12,12.00
2011,09,30,13,13,12.00
2011,09,30,13,14,12.00
2011,09,30,13,15,12.00
2011,09,30,13,16,12.00
2011,09,30,13,17,11.90
2011,09,30,13,18,11.90
2011,09,30,13,19,12.00
2011,09,30,13,20,11.90
2011,09,30,13,21,12.00
2011,09,30,13,22,12.00
2011,09,30,13,23,12.00
2011,09,30,13,24,12.00
2011,09,30,13,25,11.90
2011,09,30,13,26,11.90
2011,09,30,13,27,11.90
2011,09,30,13,28,11.90
2011,09,30,13,29,11.90
2011,09,30,13,30,11.90
2011,09,30,13,31,12.00
2011,09,30,13,32,12.00
2011,09,30,13,33,11.90
2011,09,30,13,34,11.90
2011,09,30,13,35,11.90
2011,09,30,13,36,11.90
2011,09,30,13,37,11.90
2011,09,30,13,38,11.90
2011,09,30,13,39,11.90
2011,09,30,13,40,11.90
2011,09,30,13,41,11.90
2011,09,30,13,42,11.90
2011,09,30,13,43,11.90
2011,09,30,13,44,11.90
2011,09,30,13,45,11.90
2011,09,30,13,46,11.80
2011,09,30,13,47,11.80
2011,09,30,13,48,11.80
2011,09,30,13,49,11.80
2011,09,30,13,50,11.80
2011,09,30,13,51,11.80
2011,09,30,13,52,11.80
2011,09,30,13,53,11.80
2011,09,30,13,54,11.70
2011,09,30,13,55,11.70
2011,09,30,13,56,11.70
2011,09,30,13,57,11.70
2011,09,30,13,58,11.70
2011,09,30,14,01,11.50
2011,09,30,14,02,11.50
2011,09,30,14,03,11.50
2011,09,30,14,04,11.50
2011,09,30,14,05,11.40
2011,09,30,14,06,11.40
2011,09,30,14,07,11.30
2011,09,30,14,10,11.30
2011,09,30,14,11,11.20
2011,09,30,14,12,11.20
2011,09,30,14,13,11.10
2011,09,30,14,14,11.10
2011,09,30,14,15,11.10
2011,09,30,14,16,11.10
2011,09,30,14,18,11.00
2011,09,30,14,19,11.00
2011,09,30,14,20,11.00
2011,09,30,14,21,11.00
2011,09,30,14,22,11.00
2011,09,30,14,23,11.00
2011,09,30,14,24,11.00
2011,09,30,14,25,11.00
2011,09,30,14,26,10.90
2011,09,30,14,27,11.00
2011,09,30,14,28,11.00
2011,09,30,14,29,11.00
2011,09,30,14,30,11.10
2011,09,30,14,31,11.10
2011,09,30,14,32,11.10
2011,09,30,14,33,11.10
2011,09,30,14,34,11.10
2011,09,30,14,35,11.10
2011,09,30,14,36,11.10
2011,09,30,14,37,11.20
2011,09,30,14,38,11.20
2011,09,30,14,39,11.20
2011,09,30,14,40,11.20
2011,09,30,14,41,11.20
2011,09,30,14,42,11.30
2011,09,30,14,43,11.30
2011,09,30,14,44,11.30
2011,09,30,14,45,11.40
2011,09,30,14,46,11.40
2011,09,30,14,47,11.40
2011,09,30,14,48,11.40
2011,09,30,14,49,11.40
2011,09,30,14,50,11.40
2011,09,30,14,51,11.40
2011,09,30,14,52,11.40
2011,09,30,14,53,11.40
2011,09,30,14,54,11.40
2011,09,30,14,55,11.40
2011,09,30,14,56,11.40
2011,09,30,14,57,11.40
2011,09,30,14,58,11.40
2011,09,30,14,59,11.40
2011,09,30,15,00,11.40
2011,09,30,15,01,11.40
2011,09,30,15,02,11.40
2011,09,30,15,03,11.40
2011,09,30,15,04,11.40
2011,09,30,15,05,11.40
2011,09,30,15,06,11.40
2011,09,30,15,07,11.40
2011,09,30,15,08,11.40
2011,09,30,15,09,11.50
2011,09,30,15,10,11.40
2011,09,30,15,11,11.50
2011,09,30,15,12,11.50
2011,09,30,15,13,11.50
2011,09,30,15,14,11.50
2011,09,30,15,15,11.50
2011,09,30,15,16,11.50
2011,09,30,15,17,11.50
2011,09,30,15,18,11.50
2011,09,30,15,19,11.50
2011,09,30,15,20,11.50
2011,09,30,15,21,11.50
2011,09,30,15,22,11.50
2011,09,30,15,23,11.50
2011,09,30,15,24,11.50
2011,09,30,15,25,11.50
2011,09,30,15,26,11.50
2011,09,30,15,27,11.50
2011,09,30,15,28,11.50
2011,09,30,15,29,11.50
2011,09,30,15,30,11.50
2011,09,30,15,31,11.50
2011,09,30,15,32,11.50
2011,09,30,15,33,11.50
2011,09,30,15,34,11.50
2011,09,30,15,35,11.50
2011,09,30,15,36,11.50
2011,09,30,15,37,11.50
2011,09,30,15,38,11.50
2011,09,30,15,39,11.50
2011,09,30,15,40,11.50
2011,09,30,15,41,11.50
2011,09,30,15,42,11.50
2011,09,30,15,43,11.50
2011,09,30,15,44,11.50
2011,09,30,15,45,11.50
2011,09,30,15,46,11.50
2011,09,30,15,47,11.50
2011,09,30,15,48,11.50
2011,09,30,15,49,11.50
2011,09,30,15,50,11.50
2011,09,30,15,51,11.50
2011,09,30,15,52,11.50
2011,09,30,15,53,11.50
2011,09,30,15,54,11.50
2011,09,30,15,55,11.50
2011,09,30,15,56,11.50
2011,09,30,15,57,11.60
2011,09,30,15,58,11.60
2011,09,30,15,59,11.60
2011,09,30,16,00,11.60
2011,09,30,16,01,11.60
2011,09,30,16,02,11.60
2011,09,30,16,03,11.60
2011,09,30,16,04,11.60
2011,09,30,16,05,11.60
2011,09,30,16,06,11.60
2011,09,30,16,07,11.60
2011,09,30,16,08,11.60
2011,09,30,16,09,11.60
2011,09,30,16,10,11.60
2011,09,30,16,11,11.60
2011,09,30,16,12,11.60
2011,09,30,16,13,11.60
2011,09,30,16,14,11.60
2011,09,30,16,15,11.60
2011,09,30,16,16,11.60
2011,09,30,16,17,11.60
2011,09,30,16,18,11.60
2011,09,30,16,19,11.60
2011,09,30,16,20,11.60
2011,09,30,16,21,11.70
2011,09,30,16,22,11.70
2011,09,30,16,23,11.70
2011,09,30,16,24,11.70
2011,09,30,16,25,11.70
2011,09,30,16,26,11.70
2011,09,30,16,27,11.70
2011,09,30,16,28,11.70
2011,09,30,16,29,11.70
2011,09,30,16,30,11.70
2011,09,30,16,31,11.80
2011,09,30,16,32,11.80
2011,09,30,16,33,11.80
2011,09,30,16,34,11.80
2011,09,30,16,35,11.80
2011,09,30,16,36,11.80
2011,09,30,16,37,11.80
2011,09,30,16,38,11.80
2011,09,30,16,41,11.80
2011,09,30,16,42,11.80
2011,09,30,16,43,11.80
2011,09,30,16,44,11.80
2011,09,30,16,45,11.80
2011,09,30,16,46,11.90
2011,09,30,16,47,11.90
2011,09,30,16,48,11.90
2011,09,30,16,49,11.90
2011,09,30,16,50,11.90
2011,09,30,16,51,11.90
2011,09,30,16,52,11.90
2011,09,30,16,53,11.90
2011,09,30,16,54,11.90
2011,09,30,16,55,11.90
2011,09,30,16,56,11.90
2011,09,30,16,57,11.90
2011,09,30,16,58,11.90
2011,09,30,16,59,11.90
2011,09,30,17,00,11.90
2011,09,30,17,01,12.00
2011,09,30,17,02,12.00
2011,09,30,17,03,12.00
2011,09,30,17,04,12.00
2011,09,30,17,05,12.00
2011,09,30,17,06,12.00
2011,09,30,17,07,12.00
2011,09,30,17,08,12.00
2011,09,30,17,09,12.00
2011,09,30,17,10,12.10
2011,09,30,17,11,12.10
2011,09,30,17,12,12.10
2011,09,30,17,13,12.10
2011,09,30,17,14,12.10
2011,09,30,17,15,12.10
2011,09,30,17,16,12.10
2011,09,30,17,17,12.10
2011,09,30,17,18,12.10
2011,09,30,17,19,12.00
2011,09,30,17,20,12.00
2011,09,30,17,21,12.00
2011,09,30,17,22,12.00
2011,09,30,17,23,12.00
2011,09,30,17,24,12.00
2011,09,30,17,25,12.00
2011,09,30,17,26,12.00
2011,09,30,17,27,12.10
2011,09,30,17,28,12.10
2011,09,30,17,29,12.10
2011,09,30,17,30,12.10
2011,09,30,17,31,12.10
2011,09,30,17,32,12.10
2011,09,30,17,33,12.10
2011,09,30,17,34,12.10
2011,09,30,17,35,12.10
2011,09,30,17,36,12.20
2011,09,30,17,37,12.20